SCP
0 0 0 0 0 0 0 0 0 0 0 0 0 0 0 0 0 0 0 0 0 0 0 0 0 0 0 0 0 0 0 0 0 0 0 0 0 0 0 0 0 0 0 0 0 0 0 -0 -0 -0 -0 -0 0 0
0 0 0 0 0 0 0 0 0 0 0 0 0 0 0 0 0 0 0 0 0 0 0 0 0 0 0 0 0 0 0 0 0 0 0 0 0 0 0 0 0 0 0 0 0 0 0 -0 0 -0 -0 0 0 0
0 0 0 0 0 0 0 0 0 0 0 0 0 0 0 0 0 0 0 0 0 0 0 0 0 0 0 0 0 0 0 0 0 0 0 0 0 0 0 0 0 0 0 0 0 0 0 -0 -0 -0 0 0 -0 0
0 0 0 0 0 0 0 0 0 0 0 0 0 0 0 0 0 0 0 0 0 0 0 0 0 0 0 0 -0 -0 -0 0 0 0 0 0 0 0 0 0 0 0 -0 0 0 -0 0 -0 -0 -0 -0 -0 -0 -0
0 0 0 0 0 0 0 0 0 0 0 0 0 0 0 0 0 0 0 0 0 0 0 0 0 0 0 0 0 -0 -0 -0 0 0 0 0 0 0 0 0 0 -0 -0 -0 0 -0 0 -0 -0 -0 -0 -0 0 -0
0 0 0 0 0 0 0 0 0 0 0 0 0 0 0 0 0 0 0 0 0 0 0 0 0 0 0 0 0 -0 -0 0 0 -0 0 -0 0 0 -0 -0 0 0 0 -0 -0 -0 -0 -0 -0 -0 -0 -0 -0 -0
0 0 0 0 0 0 0 0 0 0 0 0 0 0 0 0 0 0 0 0 0 0 0 0 0 0 0 0 0 0 -0 0 0 -0 0 0 0 0 0 -0 0 0 0 0 -0 -0 -0 -0 -0 -0 -0 -0 -0 -0
0 0 0 0 0 0 0 0 0 0 0 0 0 0 0 0 0 0 0 0 0 0 0 0 0 0 0 0 -0 -0 -0 0 -0 -0 0 0 0 0 -0 0 0 0 -0 -0 0 0 0 -0 -0 -0 -0 -0 -0 -0
0 0 0 0 0 0 0 0 0 0 0 0 0 0 0 0 0 0 0 0 0 0 0 0 0 0 0 0 0 -0 -0 -0 -0 0 0 0 -0 0 -0 0 0 -0 0 0 -0 -0 0 0 -0 0 0 0 -0 -0
0 0 0 0 0 0 0 0 0 0 0 0 0 0 0 0 0 0 0 0 0 0 0 0 0 0 0 0 -0 -0 -0 -0 0 0 0 0 -0 0 -0 -0 -0 -0 -0 -0 -0 -0 -0 -0 -0 0 0 0 0 -0
0 0 0 0 0 0 0 0 0 0 0 0 0 0 0 0 0 0 0 0 0 0 0 0 0 0 0 0 0 -0 0 -0 0 0 0 0 0 0 0 0 0 -0 -0 0 0 0 -0 0 -0 -0 -0 0 0 -0
0 0 0 0 0 0 0 0 0 0 0 0 0 0 0 0 0 0 0 0 0 0 0 0 0 0 0 0 0 -0 0 0 0 0 0 0 0 0 0 0 0 -0 -0 -0 -0 -0 -0 -0 -0 -0 -0 -0 0 -0
0 0 0 0 0 0 0 0 0 0 0 0 0 0 0 0 0 0 0 0 0 0 0 0 0 0 0 0 0 0 -0 0 0 0 0 0 0 0 0 0 0 0 -0 -0 -0 0 0 0 0 0 0 0 0 -0
0 0 0 0 0 0 0 0 0 0 0 0 0 0 0 0 0 0 0 0 0 0 0 0 0 0 0 0 0 -0 -0 -0 0 0 0 0 0 0 0 0 0 0 0 0 -0 -0 -0 -0 -0 -0 -0 -0 -0 -0
0 0 0 0 0 0 0 0 0 0 0 0 0 0 0 0 0 0 0 0 0 0 0 0 0 0 0 0 0 -0 -0 0 -0 -0 0 0 0 0 0 0 0 0 0 0 -0 -0 -0 -0 -0 -0 -0 -0 -0 -0
0 0 0 0 0 0 0 0 0 0 0 0 0 0 0 0 0 0 0 0 0 0 0 0 0 0 0 0 0 0 0 0 0 0 0 0 0 0 0 0 -0 -0 0 0 -0 -0 -0 -0 -0 -0 -0 -0 -0 -0
0 0 0 0 0 0 0 0 0 0 0 0 0 0 0 0 0 0 0 0 0 0 0 0 0 0 0 0 0 -0 -0 0 -0 0 0 -0 0 0 0 0 0 0 0 0 0 0 -0 -0 -0 -0 -0 -0 -0 -0
0 0 0 0 0 0 0 0 0 0 0 0 0 0 0 0 0 0 0 0 0 0 0 0 0 0 0 0 -0 -0 -0 -0 0 0 -0 -0 0 0 0 0 0 0 0 0 0 0 0 -0 -0 -0 -0 -0 0 -0
0 0 0 0 0 0 0 0 0 0 0 0 0 0 0 0 0 0 0 0 0 0 0 0 0 0 0 0 -0 -0 -0 0 0 0 0 0 0 0 0 0 0 0 0 0 0 0 0 0 0 0 0 0 0 0
0 0 0 0 0 0 0 0 0 0 0 0 0 0 0 0 0 0 0 0 0 0 0 0 0 0 0 0 0 -0 0 0 -0 0 0 0 0 0 0 0 0 0 0 0 0 0 0 0 0 0 0 0 0 0
0 0 0 0 0 0 0 0 0 0 0 0 0 0 0 0 0 0 0 0 0 0 0 0 0 0 0 0 0 0 0 0 0 0 0 0 0 0 0 0 0 0 0 0 0 0 0 0 0 0 0 0 0 0
0 0 0 0 0 0 0 0 0 0 0 0 0 0 0 0 0 0 0 0 0 0 0 0 0 0 0 0 0 -0 0 -0 -0 0 0 -0 -0 0 0 0 0 0 0 0 0 0 0 0 0 0 0 0 0 0
0 0 0 0 0 0 0 0 0 0 0 0 0 0 0 0 0 0 0 0 0 0 0 0 0 0 0 0 0 0 -0 -0 0 0 0 0 0 0 -0 0 0 0 0 0 0 0 0 0 0 0 0 0 0 -0
0 0 0 0 0 0 0 0 0 0 0 0 0 -0 -0 -0 0 0 -0 0 0 0 0 0 0 0 0 0 0 0 0 0 0 -0 -0 0 0 -0 0 0 0 0 0 0 0 0 0 0 0 0 0 -0 -0 -0
0 0 0 0 0 0 0 0 0 0 -0 -0 -0 -0 -0 0 -0 0 0 0 0 0 -0 -0 0 0 0 0 0 0 0 0 -0 -0 -0 -0 -0 -0 -0 0 0 0 0 0 0 0 0 0 0 0 0 0 0 -0
0 0 0 0 0 0 0 0 0 0 0 0 0 -0 -0 0 -0 0 -0 0 0 0 0 0 0 0 0 0 0 0 0 0 0 -0 -0 0 -0 -0 -0 -0 -0 0 0 0 0 0 0 0 0 0 0 0 0 0
0 0 0 0 0 0 0 0 0 0 0 0 0 -0 0 -0 0 0 0 0 0 0 0 0 0 0 0 0 0 0 0 0 0 0 -0 0 0 0 -0 -0 -0 -0 -0 0 0 0 0 0 0 0 0 0 0 0
0 0 0 0 0 0 0 0 0 0 0 -0 -0 0 -0 0 0 0 0 0 0 0 0 0 0 0 0 0 0 0 0 0 0 0 0 0 0 0 0 0 -0 -0 -0 -0 0 0 0 0 0 0 0 0 0 0
0 0 0 0 0 0 0 0 0 0 0 0 0 -0 0 0 0 0 0 0 0 0 0 0 0 0 0 0 0 0 0 0 0 0 0 0 0 0 0 0 -0 -0 -0 -0 -0 0 -0 0 0 0 0 0 0 0
0 0 0 0 0 0 0 0 0 0 0 0 0 0 0 0 0 0 0 0 0 0 0 0 0 0 0 0 0 0 0 0 0 0 0 0 0 0 0 0 0 0 0 0 -0 0 0 0 0 0 0 0 0 0
0 0 0 0 0 0 0 0 0 0 0 0 0 0 0 0 0 0 0 0 -0 0 0 0 0 0 0 0 0 0 0 0 0 0 0 0 0 0 0 0 0 0 0 0 0 0 0 0 0 0 0 0 0 0
0 0 0 0 0 0 0 0 0 0 0 0 0 0 0 0 0 0 0 0 0 0 0 0 0 0 0 0 0 0 0 0 0 0 0 0 0 0 0 0 0 0 0 0 0 0 0 0 0 0 0 0 0 0
0 0 0 0 0 0 0 0 0 0 0 0 0 0 0 0 0 0 0 0 0 0 0 -0 -0 0 0 0 0 0 0 0 0 0 0 0 0 0 0 0 0 0 0 0 0 0 0 0 0 0 0 0 0 0
Wind_Speed_500mb
50 44 42 40 41 42 42 41 40 37 35 34 32 33 30 24 24 17 18 15 14 15 47 41 21 23 19 14 5 20 22 5 8 9 5 6 4 6 7 6 13 7 10 5 7 7 9 46 39 10 15 48 40 30
52 48 43 42 42 43 41 39 39 36 32 32 30 30 27 24 25 18 24 21 25 27 44 69 64 53 51 40 32 9 10 15 7 4 4 6 5 6 8 7 7 4 6 6 4 5 20 53 49 70 60 42 17 35
55 51 45 43 42 42 41 41 36 33 32 28 28 29 27 26 27 21 28 26 29 27 41 15 5 4 25 25 23 18 12 7 7 5 6 4 7 4 5 6 8 5 10 6 9 6 18 51 65 57 46 47 50 49
60 54 46 43 42 42 41 41 36 33 29 27 26 25 26 30 30 27 30 23 19 17 12 17 25 41 25 20 32 47 48 29 19 17 7 4 5 2 5 7 6 8 20 13 7 18 15 63 65 48 54 58 58 56
64 52 46 43 42 41 41 40 38 32 29 28 25 25 25 28 33 31 28 12 18 18 10 32 49 5 9 15 25 30 43 52 20 6 5 4 6 5 6 4 5 17 9 9 7 33 21 40 58 57 58 54 57 67
62 52 46 45 44 41 42 39 37 34 28 28 26 24 24 26 28 28 5 9 7 12 12 9 22 12 15 24 24 16 22 34 17 9 8 7 8 5 4 5 13 18 27 35 16 40 50 39 61 61 64 65 68 72
51 48 47 49 44 41 40 38 35 33 26 25 26 24 25 24 21 18 8 6 12 16 10 14 15 12 22 19 9 7 10 12 18 8 7 6 6 11 2 1 17 18 19 11 25 31 30 56 43 58 61 64 62 65
41 42 50 49 43 39 40 34 32 29 25 22 23 24 26 20 22 19 3 15 22 20 11 6 9 16 11 11 10 4 7 11 11 6 6 6 11 6 5 10 14 14 12 17 22 30 48 41 48 57 59 57 61 60
46 48 48 48 43 36 37 30 33 25 21 20 21 19 20 13 12 4 9 8 14 15 7 8 6 7 15 8 10 7 5 3 6 3 6 8 3 7 10 13 6 14 5 17 19 25 30 38 39 39 38 44 47 46
49 46 47 43 37 33 33 31 31 21 17 17 12 7 7 7 8 5 7 7 15 14 15 10 11 7 8 7 6 9 4 4 2 6 10 3 5 7 14 11 6 12 15 21 20 18 23 30 28 27 29 28 29 27
45 46 44 39 31 33 30 31 25 16 15 12 11 9 10 10 8 7 9 10 14 8 14 13 24 9 9 3 4 4 5 4 4 4 4 4 5 9 18 14 11 28 24 11 16 22 24 26 26 24 23 21 18 15
41 37 34 28 30 32 35 30 22 19 15 15 10 6 8 10 9 5 7 8 9 9 12 11 14 20 8 8 4 5 4 4 5 8 4 5 5 27 30 25 35 30 22 24 20 23 23 23 26 26 23 21 20 18
38 33 32 32 33 36 35 26 20 22 21 13 8 5 8 10 8 12 11 7 6 9 13 13 5 8 7 8 7 3 6 7 2 3 5 5 14 33 36 40 40 32 24 22 24 21 21 23 25 27 25 22 22 20
35 32 35 40 38 39 32 25 24 26 16 12 11 8 10 9 10 10 8 7 7 10 6 15 8 11 8 5 5 6 7 4 4 5 6 5 37 41 44 44 42 32 23 24 21 19 19 22 27 28 26 24 23 23
34 37 42 40 41 34 30 28 29 32 15 10 11 10 12 20 17 12 14 18 18 17 10 6 5 5 5 3 6 7 6 6 4 4 5 24 48 51 49 44 33 32 28 22 17 15 15 18 22 24 23 22 24 27
37 40 43 43 39 32 30 31 31 26 10 11 14 8 16 5 15 25 24 19 9 12 8 5 2 4 7 5 5 7 5 3 5 7 29 39 54 52 47 38 32 28 24 19 15 14 14 15 18 20 18 16 19 24
48 37 48 49 39 32 35 38 24 15 13 10 14 27 26 19 16 13 11 13 3 7 4 2 5 6 2 4 5 6 7 7 29 40 12 51 58 52 43 35 31 30 24 16 13 11 12 12 14 15 13 11 15 21
45 47 43 40 44 45 45 20 13 12 15 22 13 16 30 25 19 22 21 21 7 6 8 6 3 2 6 6 2 5 14 32 36 17 25 44 50 48 31 23 28 26 22 14 11 7 7 11 13 14 11 9 11 17
50 44 44 49 49 31 18 18 12 9 22 19 25 33 34 33 39 40 40 36 28 20 9 5 5 6 7 9 5 5 24 25 1 16 28 30 31 25 30 28 20 13 15 7 5 2 4 8 10 12 8 7 9 11
45 44 45 44 38 12 11 10 13 10 9 7 14 19 18 18 23 25 29 33 30 15 12 8 9 10 11 4 10 17 18 21 8 23 32 37 31 33 29 23 18 19 20 19 17 14 9 6 7 6 3 5 5 6
57 51 45 38 28 11 6 8 12 11 11 12 15 15 14 26 31 28 33 33 25 15 12 26 28 32 22 25 25 24 22 13 24 28 38 41 35 32 34 29 20 19 18 17 14 9 7 8 9 8 3 4 6 5
49 45 31 28 10 10 9 14 10 7 9 14 15 17 13 10 15 21 21 23 16 24 38 46 52 48 41 35 31 25 20 15 24 27 25 34 36 36 33 20 16 18 18 18 13 9 8 8 9 7 3 1 3 1
37 29 15 14 11 13 9 9 9 8 5 7 5 6 6 9 10 14 10 16 23 41 43 47 53 51 49 42 35 26 23 20 27 24 27 30 24 23 19 10 8 12 17 16 13 9 6 7 4 1 3 8 7 7
33 17 7 10 15 6 7 8 10 8 8 5 5 6 7 9 10 7 6 8 15 16 22 28 30 30 31 29 28 23 20 28 29 27 29 26 24 22 18 11 11 13 15 14 11 8 4 1 4 6 7 8 7 4
8 10 7 7 10 7 7 6 8 5 8 8 6 7 5 9 3 4 5 7 15 20 19 19 23 29 29 24 26 30 43 34 30 31 31 29 26 27 22 18 18 15 8 8 11 7 4 5 10 11 12 11 9 8
5 11 13 12 6 7 6 4 4 5 4 5 8 2 2 3 7 7 3 3 4 9 13 15 20 20 23 31 35 41 41 31 31 31 32 33 31 27 22 19 17 14 13 12 4 6 11 11 12 12 10 7 6 7
2 5 11 12 8 8 7 11 14 6 7 6 4 3 6 6 7 3 6 4 3 7 10 10 22 23 8 21 42 50 40 33 37 37 33 26 25 22 17 19 13 9 11 15 13 9 12 12 12 11 11 8 6 8
9 5 7 3 11 12 5 5 5 5 4 6 7 3 3 2 3 5 6 5 4 8 9 17 29 21 29 28 30 28 33 29 31 34 31 31 26 21 19 18 13 11 13 14 15 15 13 10 7 9 11 11 11 10
7 9 7 7 8 9 10 7 5 1 5 7 4 1 2 7 16 19 20 19 18 19 24 28 28 12 6 15 18 17 17 24 28 26 29 33 33 30 26 24 23 16 18 18 17 14 12 10 7 7 9 7 8 10
8 15 8 7 6 6 7 9 9 1 9 11 7 11 14 17 24 29 31 32 37 36 30 25 22 23 19 18 14 9 7 4 10 24 37 40 40 36 36 32 29 28 22 21 25 25 24 22 20 19 16 14 11 10
4 11 8 7 6 10 15 3 8 5 6 10 21 20 5 8 28 26 27 26 29 31 28 28 29 28 23 20 22 17 12 6 6 7 14 25 28 32 33 37 39 36 31 30 31 32 30 29 27 24 20 16 15 14
13 15 8 5 6 4 6 7 2 2 4 5 6 10 7 8 10 8 15 22 17 19 22 22 22 24 24 25 24 22 24 22 16 15 15 17 16 19 20 17 14 15 27 35 39 32 33 37 37 36 32 28 25 22
12 8 12 7 4 3 4 5 4 3 3 2 1 5 6 7 6 5 10 13 10 12 15 22 23 18 13 10 9 10 10 12 12 9 7 8 14 14 16 16 17 17 19 20 22 29 40 39 40 39 41 38 32 31
Wind_Direction_500mb
280 280 287 291 296 301 304 307 310 313 315 319 322 323 323 324 322 326 319 301 290 269 285 273 258 246 265 251 250 310 336 359 320 3 342 321 299 322 301 261 302 316 324 343 324 339 334 343 329 344 294 303 308 330
272 275 279 285 292 295 298 298 302 307 311 313 316 317 313 313 316 314 302 308 296 274 271 294 286 274 262 266 265 288 261 310 281 315 7 311 313 318 310 302 357 335 343 298 335 299 287 294 279 290 283 264 301 100
266 268 273 280 286 289 290 291 297 301 303 305 311 312 304 304 304 298 295 299 308 297 307 288 280 323 302 283 254 231 249 248 277 258 321 282 282 303 305 307 301 289 316 308 316 285 320 347 355 19 65 88 105 106
261 263 267 275 282 283 283 286 290 294 295 297 305 305 300 302 307 301 288 299 278 281 289 283 306 309 289 255 238 249 267 266 278 315 259 278 273 289 291 289 309 308 311 317 302 344 347 5 11 43 68 93 99 98
253 255 263 271 276 277 277 281 284 287 287 289 297 297 297 304 307 305 304 259 265 249 290 291 313 103 288 298 294 279 260 254 267 265 226 243 251 274 248 287 348 341 338 1 2 9 12 9 27 57 72 78 89 99
248 252 260 269 272 271 269 272 278 283 281 281 289 290 293 301 306 319 283 222 276 290 293 300 316 291 311 325 314 283 263 238 215 214 221 244 253 228 327 341 300 332 19 20 11 24 35 36 51 62 70 78 87 92
243 256 264 267 266 263 260 265 271 277 274 276 285 284 288 292 286 264 263 247 248 268 298 293 294 289 315 325 297 264 227 193 198 224 226 227 237 192 271 348 264 320 9 27 30 36 37 45 44 71 78 90 96 99
243 254 262 267 263 256 250 254 258 269 265 271 278 282 288 286 284 282 318 230 226 264 265 277 278 309 328 307 308 282 245 194 217 220 227 223 149 225 251 221 256 318 83 68 73 82 71 66 57 59 77 91 93 93
241 247 254 257 257 246 243 239 251 257 255 268 273 284 282 253 234 181 231 247 230 228 262 235 270 270 327 293 291 296 290 235 224 248 222 179 202 228 223 186 151 160 204 131 106 94 84 78 75 64 61 70 79 83
247 250 254 253 249 241 222 229 246 247 245 252 260 233 250 227 206 254 257 231 202 215 219 249 240 265 302 316 294 323 317 288 262 248 152 205 243 241 177 162 174 177 156 147 111 93 87 81 77 72 65 62 65 70
246 246 250 248 240 215 207 225 245 238 234 207 184 203 211 231 241 223 243 207 200 229 215 240 231 236 258 225 287 307 309 277 271 261 215 238 258 202 173 172 164 160 152 136 105 104 92 82 71 59 55 52 52 53
244 239 236 236 200 187 211 222 218 214 209 195 187 209 204 208 211 216 229 218 212 231 208 202 235 221 255 236 273 255 269 256 252 322 235 245 250 165 159 151 151 155 142 119 108 102 89 69 50 40 44 49 50 50
238 225 219 194 186 199 215 223 211 203 207 217 197 175 187 195 208 223 212 204 201 212 211 211 231 220 210 235 249 279 250 246 128 268 228 246 162 162 153 150 145 144 134 117 108 89 74 57 45 42 43 45 37 33
233 222 200 182 188 205 213 216 204 189 179 190 161 230 189 209 222 204 203 204 268 271 244 249 250 201 192 193 215 253 241 232 246 237 243 202 172 162 156 152 146 142 133 121 103 82 60 41 34 31 33 39 38 35
219 196 182 187 198 201 205 198 194 184 187 193 190 225 223 228 247 252 243 284 274 280 258 264 255 228 213 252 211 271 251 247 256 241 279 179 168 161 156 157 149 146 143 128 105 81 62 42 31 26 26 26 24 23
195 184 197 196 198 198 190 178 181 181 214 219 226 244 234 271 262 249 257 259 240 260 280 240 225 256 243 198 232 248 266 265 342 330 324 178 170 169 167 164 155 147 143 130 108 82 57 41 25 23 26 27 20 14
185 199 191 199 186 183 176 172 172 198 214 223 242 229 243 271 256 237 231 267 272 291 229 256 242 240 345 243 226 198 221 287 302 296 276 180 177 176 176 171 169 159 154 143 121 91 56 43 28 23 24 23 11 7
190 191 185 179 170 163 170 170 191 215 235 240 236 239 228 236 244 252 244 240 257 226 194 226 254 254 228 242 262 227 251 317 309 275 193 187 184 180 169 180 177 171 166 149 141 115 59 30 21 8 2 4 6 7
187 172 180 179 173 150 164 192 206 244 238 250 254 257 258 259 259 258 254 251 256 256 243 188 225 213 235 228 265 10 335 315 84 159 180 188 173 170 199 190 161 190 180 183 194 241 317 340 343 349 337 323 320 344
144 150 154 161 161 162 169 192 203 250 256 247 245 246 231 239 259 248 241 240 236 206 197 208 219 218 218 225 257 331 295 295 205 156 161 162 191 208 196 179 210 210 203 211 217 228 244 299 324 334 292 271 275 325
150 155 158 164 187 220 224 208 222 238 262 252 269 235 250 250 252 246 241 238 200 211 207 224 236 248 255 289 296 301 304 285 194 191 184 188 198 198 191 200 204 206 221 234 238 237 265 297 325 339 331 212 189 259
164 170 161 167 199 213 251 223 233 294 257 257 275 253 244 238 235 235 230 196 217 226 225 236 245 250 257 270 284 289 291 279 208 216 209 194 188 190 196 203 212 225 240 253 256 257 279 307 320 319 324 151 210 307
159 166 171 177 198 210 257 212 219 226 230 249 244 233 234 230 219 190 215 222 238 242 244 249 254 255 257 265 270 259 268 220 193 198 198 194 199 200 199 212 230 256 260 258 244 249 285 311 294 306 160 164 182 198
159 174 177 197 201 223 222 216 221 243 241 251 238 244 223 221 179 202 245 232 221 221 226 232 238 239 236 235 233 232 205 182 182 188 194 192 189 194 208 214 251 275 270 268 251 233 261 348 116 102 111 141 150 148
157 196 204 219 198 215 224 222 210 219 239 220 236 254 213 177 173 237 239 260 225 221 216 227 229 223 222 228 231 222 201 193 186 189 189 192 192 202 209 225 249 262 252 239 232 237 209 158 133 123 122 115 113 112
204 200 184 203 215 202 223 260 225 241 253 253 242 4 146 216 205 237 235 272 261 191 205 208 205 198 223 229 206 175 177 187 188 199 197 201 207 212 217 231 223 207 197 180 180 163 156 137 141 138 151 138 114 111
233 253 222 227 250 273 281 266 234 213 245 235 243 207 209 221 220 262 281 6 196 199 196 182 186 203 184 172 185 193 202 195 197 196 195 201 206 207 205 201 191 179 182 187 171 148 143 142 137 145 155 161 144 124
233 238 207 182 216 238 245 262 248 236 241 299 312 253 334 283 280 267 18 59 167 172 155 156 134 104 105 124 139 158 171 180 186 199 200 206 203 195 206 210 184 169 159 152 158 170 163 160 141 136 140 156 175 177
232 217 204 251 255 239 227 229 254 261 326 321 280 61 320 320 91 91 91 101 89 91 114 131 134 155 203 91 109 118 139 180 197 201 199 202 196 196 196 197 203 192 178 174 161 147 160 165 158 142 133 133 172 197
243 196 209 232 217 235 252 230 293 94 350 342 37 69 58 52 101 99 87 98 100 92 89 93 88 96 77 69 96 120 151 133 187 215 209 199 203 205 208 210 220 228 222 207 195 184 182 184 190 196 203 211 218 222
210 178 213 238 256 249 262 273 108 148 323 83 102 103 54 56 60 78 111 98 92 90 82 77 73 66 66 70 69 81 119 80 75 137 185 201 209 214 220 224 229 231 222 213 216 215 218 218 217 222 227 234 240 242
199 203 197 215 256 268 264 223 193 139 121 156 126 133 119 60 53 57 100 122 105 83 82 72 60 60 57 58 65 81 88 94 112 123 148 172 178 174 178 174 167 189 208 214 218 214 226 240 243 247 247 248 249 252
204 210 221 268 266 201 124 134 90 59 25 28 234 152 119 110 115 106 121 144 116 97 90 72 53 52 66 69 66 64 47 40 37 23 359 318 278 258 224 222 226 233 257 236 219 224 232 231 240 245 249 254 259 261
Wind_Speed_850mb
50 44 42 40 41 42 42 41 40 37 35 34 32 33 30 24 24 17 18 15 14 15 47 41 21 23 19 14 5 20 22 5 8 9 5 6 4 6 7 6 13 7 10 5 7 7 9 46 39 10 15 48 40 30
52 48 43 42 42 43 41 39 39 36 32 32 30 30 27 24 25 18 24 21 25 27 44 69 64 53 51 40 32 9 10 15 7 4 4 6 5 6 8 7 7 4 6 6 4 5 20 53 49 70 60 42 17 35
55 51 45 43 42 42 41 41 36 33 32 28 28 29 27 26 27 21 28 26 29 27 41 15 5 4 25 25 23 18 12 7 7 5 6 4 7 4 5 6 8 5 10 6 9 6 18 51 65 57 46 47 50 49
60 54 46 43 42 42 41 41 36 33 29 27 26 25 26 30 30 27 30 23 19 17 12 17 25 41 25 20 32 47 48 29 19 17 7 4 5 2 5 7 6 8 20 13 7 18 15 63 65 48 54 58 58 56
64 52 46 43 42 41 41 40 38 32 29 28 25 25 25 28 33 31 28 12 18 18 10 32 49 5 9 15 25 30 43 52 20 6 5 4 6 5 6 4 5 17 9 9 7 33 21 40 58 57 58 54 57 67
62 52 46 45 44 41 42 39 37 34 28 28 26 24 24 26 28 28 5 9 7 12 12 9 22 12 15 24 24 16 22 34 17 9 8 7 8 5 4 5 13 18 27 35 16 40 50 39 61 61 64 65 68 72
51 48 47 49 44 41 40 38 35 33 26 25 26 24 25 24 21 18 8 6 12 16 10 14 15 12 22 19 9 7 10 12 18 8 7 6 6 11 2 1 17 18 19 11 25 31 30 56 43 58 61 64 62 65
41 42 50 49 43 39 40 34 32 29 25 22 23 24 26 20 22 19 3 15 22 20 11 6 9 16 11 11 10 4 7 11 11 6 6 6 11 6 5 10 14 14 12 17 22 30 48 41 48 57 59 57 61 60
46 48 48 48 43 36 37 30 33 25 21 20 21 19 20 13 12 4 9 8 14 15 7 8 6 7 15 8 10 7 5 3 6 3 6 8 3 7 10 13 6 14 5 17 19 25 30 38 39 39 38 44 47 46
49 46 47 43 37 33 33 31 31 21 17 17 12 7 7 7 8 5 7 7 15 14 15 10 11 7 8 7 6 9 4 4 2 6 10 3 5 7 14 11 6 12 15 21 20 18 23 30 28 27 29 28 29 27
45 46 44 39 31 33 30 31 25 16 15 12 11 9 10 10 8 7 9 10 14 8 14 13 24 9 9 3 4 4 5 4 4 4 4 4 5 9 18 14 11 28 24 11 16 22 24 26 26 24 23 21 18 15
41 37 34 28 30 32 35 30 22 19 15 15 10 6 8 10 9 5 7 8 9 9 12 11 14 20 8 8 4 5 4 4 5 8 4 5 5 27 30 25 35 30 22 24 20 23 23 23 26 26 23 21 20 18
38 33 32 32 33 36 35 26 20 22 21 13 8 5 8 10 8 12 11 7 6 9 13 13 5 8 7 8 7 3 6 7 2 3 5 5 14 33 36 40 40 32 24 22 24 21 21 23 25 27 25 22 22 20
35 32 35 40 38 39 32 25 24 26 16 12 11 8 10 9 10 10 8 7 7 10 6 15 8 11 8 5 5 6 7 4 4 5 6 5 37 41 44 44 42 32 23 24 21 19 19 22 27 28 26 24 23 23
34 37 42 40 41 34 30 28 29 32 15 10 11 10 12 20 17 12 14 18 18 17 10 6 5 5 5 3 6 7 6 6 4 4 5 24 48 51 49 44 33 32 28 22 17 15 15 18 22 24 23 22 24 27
37 40 43 43 39 32 30 31 31 26 10 11 14 8 16 5 15 25 24 19 9 12 8 5 2 4 7 5 5 7 5 3 5 7 29 39 54 52 47 38 32 28 24 19 15 14 14 15 18 20 18 16 19 24
48 37 48 49 39 32 35 38 24 15 13 10 14 27 26 19 16 13 11 13 3 7 4 2 5 6 2 4 5 6 7 7 29 40 12 51 58 52 43 35 31 30 24 16 13 11 12 12 14 15 13 11 15 21
45 47 43 40 44 45 45 20 13 12 15 22 13 16 30 25 19 22 21 21 7 6 8 6 3 2 6 6 2 5 14 32 36 17 25 44 50 48 31 23 28 26 22 14 11 7 7 11 13 14 11 9 11 17
50 44 44 49 49 31 18 18 12 9 22 19 25 33 34 33 39 40 40 36 28 20 9 5 5 6 7 9 5 5 24 25 1 16 28 30 31 25 30 28 20 13 15 7 5 2 4 8 10 12 8 7 9 11
45 44 45 44 38 12 11 10 13 10 9 7 14 19 18 18 23 25 29 33 30 15 12 8 9 10 11 4 10 17 18 21 8 23 32 37 31 33 29 23 18 19 20 19 17 14 9 6 7 6 3 5 5 6
57 51 45 38 28 11 6 8 12 11 11 12 15 15 14 26 31 28 33 33 25 15 12 26 28 32 22 25 25 24 22 13 24 28 38 41 35 32 34 29 20 19 18 17 14 9 7 8 9 8 3 4 6 5
49 45 31 28 10 10 9 14 10 7 9 14 15 17 13 10 15 21 21 23 16 24 38 46 52 48 41 35 31 25 20 15 24 27 25 34 36 36 33 20 16 18 18 18 13 9 8 8 9 7 3 1 3 1
37 29 15 14 11 13 9 9 9 8 5 7 5 6 6 9 10 14 10 16 23 41 43 47 53 51 49 42 35 26 23 20 27 24 27 30 24 23 19 10 8 12 17 16 13 9 6 7 4 1 3 8 7 7
33 17 7 10 15 6 7 8 10 8 8 5 5 6 7 9 10 7 6 8 15 16 22 28 30 30 31 29 28 23 20 28 29 27 29 26 24 22 18 11 11 13 15 14 11 8 4 1 4 6 7 8 7 4
8 10 7 7 10 7 7 6 8 5 8 8 6 7 5 9 3 4 5 7 15 20 19 19 23 29 29 24 26 30 43 34 30 31 31 29 26 27 22 18 18 15 8 8 11 7 4 5 10 11 12 11 9 8
5 11 13 12 6 7 6 4 4 5 4 5 8 2 2 3 7 7 3 3 4 9 13 15 20 20 23 31 35 41 41 31 31 31 32 33 31 27 22 19 17 14 13 12 4 6 11 11 12 12 10 7 6 7
2 5 11 12 8 8 7 11 14 6 7 6 4 3 6 6 7 3 6 4 3 7 10 10 22 23 8 21 42 50 40 33 37 37 33 26 25 22 17 19 13 9 11 15 13 9 12 12 12 11 11 8 6 8
9 5 7 3 11 12 5 5 5 5 4 6 7 3 3 2 3 5 6 5 4 8 9 17 29 21 29 28 30 28 33 29 31 34 31 31 26 21 19 18 13 11 13 14 15 15 13 10 7 9 11 11 11 10
7 9 7 7 8 9 10 7 5 1 5 7 4 1 2 7 16 19 20 19 18 19 24 28 28 12 6 15 18 17 17 24 28 26 29 33 33 30 26 24 23 16 18 18 17 14 12 10 7 7 9 7 8 10
8 15 8 7 6 6 7 9 9 1 9 11 7 11 14 17 24 29 31 32 37 36 30 25 22 23 19 18 14 9 7 4 10 24 37 40 40 36 36 32 29 28 22 21 25 25 24 22 20 19 16 14 11 10
4 11 8 7 6 10 15 3 8 5 6 10 21 20 5 8 28 26 27 26 29 31 28 28 29 28 23 20 22 17 12 6 6 7 14 25 28 32 33 37 39 36 31 30 31 32 30 29 27 24 20 16 15 14
13 15 8 5 6 4 6 7 2 2 4 5 6 10 7 8 10 8 15 22 17 19 22 22 22 24 24 25 24 22 24 22 16 15 15 17 16 19 20 17 14 15 27 35 39 32 33 37 37 36 32 28 25 22
12 8 12 7 4 3 4 5 4 3 3 2 1 5 6 7 6 5 10 13 10 12 15 22 23 18 13 10 9 10 10 12 12 9 7 8 14 14 16 16 17 17 19 20 22 29 40 39 40 39 41 38 32 31
Wind_Direction_850mb
280 280 287 291 296 301 304 307 310 313 315 319 322 323 323 324 322 326 319 301 290 269 285 273 258 246 265 251 250 310 336 359 320 3 342 321 299 322 301 261 302 316 324 343 324 339 334 343 329 344 294 303 308 330
272 275 279 285 292 295 298 298 302 307 311 313 316 317 313 313 316 314 302 308 296 274 271 294 286 274 262 266 265 288 261 310 281 315 7 311 313 318 310 302 357 335 343 298 335 299 287 294 279 290 283 264 301 100
266 268 273 280 286 289 290 291 297 301 303 305 311 312 304 304 304 298 295 299 308 297 307 288 280 323 302 283 254 231 249 248 277 258 321 282 282 303 305 307 301 289 316 308 316 285 320 347 355 19 65 88 105 106
261 263 267 275 282 283 283 286 290 294 295 297 305 305 300 302 307 301 288 299 278 281 289 283 306 309 289 255 238 249 267 266 278 315 259 278 273 289 291 289 309 308 311 317 302 344 347 5 11 43 68 93 99 98
253 255 263 271 276 277 277 281 284 287 287 289 297 297 297 304 307 305 304 259 265 249 290 291 313 103 288 298 294 279 260 254 267 265 226 243 251 274 248 287 348 341 338 1 2 9 12 9 27 57 72 78 89 99
248 252 260 269 272 271 269 272 278 283 281 281 289 290 293 301 306 319 283 222 276 290 293 300 316 291 311 325 314 283 263 238 215 214 221 244 253 228 327 341 300 332 19 20 11 24 35 36 51 62 70 78 87 92
243 256 264 267 266 263 260 265 271 277 274 276 285 284 288 292 286 264 263 247 248 268 298 293 294 289 315 325 297 264 227 193 198 224 226 227 237 192 271 348 264 320 9 27 30 36 37 45 44 71 78 90 96 99
243 254 262 267 263 256 250 254 258 269 265 271 278 282 288 286 284 282 318 230 226 264 265 277 278 309 328 307 308 282 245 194 217 220 227 223 149 225 251 221 256 318 83 68 73 82 71 66 57 59 77 91 93 93
241 247 254 257 257 246 243 239 251 257 255 268 273 284 282 253 234 181 231 247 230 228 262 235 270 270 327 293 291 296 290 235 224 248 222 179 202 228 223 186 151 160 204 131 106 94 84 78 75 64 61 70 79 83
247 250 254 253 249 241 222 229 246 247 245 252 260 233 250 227 206 254 257 231 202 215 219 249 240 265 302 316 294 323 317 288 262 248 152 205 243 241 177 162 174 177 156 147 111 93 87 81 77 72 65 62 65 70
246 246 250 248 240 215 207 225 245 238 234 207 184 203 211 231 241 223 243 207 200 229 215 240 231 236 258 225 287 307 309 277 271 261 215 238 258 202 173 172 164 160 152 136 105 104 92 82 71 59 55 52 52 53
244 239 236 236 200 187 211 222 218 214 209 195 187 209 204 208 211 216 229 218 212 231 208 202 235 221 255 236 273 255 269 256 252 322 235 245 250 165 159 151 151 155 142 119 108 102 89 69 50 40 44 49 50 50
238 225 219 194 186 199 215 223 211 203 207 217 197 175 187 195 208 223 212 204 201 212 211 211 231 220 210 235 249 279 250 246 128 268 228 246 162 162 153 150 145 144 134 117 108 89 74 57 45 42 43 45 37 33
233 222 200 182 188 205 213 216 204 189 179 190 161 230 189 209 222 204 203 204 268 271 244 249 250 201 192 193 215 253 241 232 246 237 243 202 172 162 156 152 146 142 133 121 103 82 60 41 34 31 33 39 38 35
219 196 182 187 198 201 205 198 194 184 187 193 190 225 223 228 247 252 243 284 274 280 258 264 255 228 213 252 211 271 251 247 256 241 279 179 168 161 156 157 149 146 143 128 105 81 62 42 31 26 26 26 24 23
195 184 197 196 198 198 190 178 181 181 214 219 226 244 234 271 262 249 257 259 240 260 280 240 225 256 243 198 232 248 266 265 342 330 324 178 170 169 167 164 155 147 143 130 108 82 57 41 25 23 26 27 20 14
185 199 191 199 186 183 176 172 172 198 214 223 242 229 243 271 256 237 231 267 272 291 229 256 242 240 345 243 226 198 221 287 302 296 276 180 177 176 176 171 169 159 154 143 121 91 56 43 28 23 24 23 11 7
190 191 185 179 170 163 170 170 191 215 235 240 236 239 228 236 244 252 244 240 257 226 194 226 254 254 228 242 262 227 251 317 309 275 193 187 184 180 169 180 177 171 166 149 141 115 59 30 21 8 2 4 6 7
187 172 180 179 173 150 164 192 206 244 238 250 254 257 258 259 259 258 254 251 256 256 243 188 225 213 235 228 265 10 335 315 84 159 180 188 173 170 199 190 161 190 180 183 194 241 317 340 343 349 337 323 320 344
144 150 154 161 161 162 169 192 203 250 256 247 245 246 231 239 259 248 241 240 236 206 197 208 219 218 218 225 257 331 295 295 205 156 161 162 191 208 196 179 210 210 203 211 217 228 244 299 324 334 292 271 275 325
150 155 158 164 187 220 224 208 222 238 262 252 269 235 250 250 252 246 241 238 200 211 207 224 236 248 255 289 296 301 304 285 194 191 184 188 198 198 191 200 204 206 221 234 238 237 265 297 325 339 331 212 189 259
164 170 161 167 199 213 251 223 233 294 257 257 275 253 244 238 235 235 230 196 217 226 225 236 245 250 257 270 284 289 291 279 208 216 209 194 188 190 196 203 212 225 240 253 256 257 279 307 320 319 324 151 210 307
159 166 171 177 198 210 257 212 219 226 230 249 244 233 234 230 219 190 215 222 238 242 244 249 254 255 257 265 270 259 268 220 193 198 198 194 199 200 199 212 230 256 260 258 244 249 285 311 294 306 160 164 182 198
159 174 177 197 201 223 222 216 221 243 241 251 238 244 223 221 179 202 245 232 221 221 226 232 238 239 236 235 233 232 205 182 182 188 194 192 189 194 208 214 251 275 270 268 251 233 261 348 116 102 111 141 150 148
157 196 204 219 198 215 224 222 210 219 239 220 236 254 213 177 173 237 239 260 225 221 216 227 229 223 222 228 231 222 201 193 186 189 189 192 192 202 209 225 249 262 252 239 232 237 209 158 133 123 122 115 113 112
204 200 184 203 215 202 223 260 225 241 253 253 242 4 146 216 205 237 235 272 261 191 205 208 205 198 223 229 206 175 177 187 188 199 197 201 207 212 217 231 223 207 197 180 180 163 156 137 141 138 151 138 114 111
233 253 222 227 250 273 281 266 234 213 245 235 243 207 209 221 220 262 281 6 196 199 196 182 186 203 184 172 185 193 202 195 197 196 195 201 206 207 205 201 191 179 182 187 171 148 143 142 137 145 155 161 144 124
233 238 207 182 216 238 245 262 248 236 241 299 312 253 334 283 280 267 18 59 167 172 155 156 134 104 105 124 139 158 171 180 186 199 200 206 203 195 206 210 184 169 159 152 158 170 163 160 141 136 140 156 175 177
232 217 204 251 255 239 227 229 254 261 326 321 280 61 320 320 91 91 91 101 89 91 114 131 134 155 203 91 109 118 139 180 197 201 199 202 196 196 196 197 203 192 178 174 161 147 160 165 158 142 133 133 172 197
243 196 209 232 217 235 252 230 293 94 350 342 37 69 58 52 101 99 87 98 100 92 89 93 88 96 77 69 96 120 151 133 187 215 209 199 203 205 208 210 220 228 222 207 195 184 182 184 190 196 203 211 218 222
210 178 213 238 256 249 262 273 108 148 323 83 102 103 54 56 60 78 111 98 92 90 82 77 73 66 66 70 69 81 119 80 75 137 185 201 209 214 220 224 229 231 222 213 216 215 218 218 217 222 227 234 240 242
199 203 197 215 256 268 264 223 193 139 121 156 126 133 119 60 53 57 100 122 105 83 82 72 60 60 57 58 65 81 88 94 112 123 148 172 178 174 178 174 167 189 208 214 218 214 226 240 243 247 247 248 249 252
204 210 221 268 266 201 124 134 90 59 25 28 234 152 119 110 115 106 121 144 116 97 90 72 53 52 66 69 66 64 47 40 37 23 359 318 278 258 224 222 226 233 257 236 219 224 232 231 240 245 249 254 259 261